Total_Precipitation_Accumulation
0.00 0.03 0.04 0.06 0.08 0.32 0.58 0.72 1.21 1.58 0.87 0.35 0.41 0.64 0.53 0.48 0.32 0.37 0.44 0.31 0.40 0.32 0.30 0.25 0.27 0.29 0.15 0.19 0.16 0.09 0.03 0.00
0.02 0.05 0.06 0.08 0.18 0.42 0.64 1.00 0.97 0.47 0.23 0.14 0.26 0.46 0.59 0.52 0.38 0.30 0.51 0.55 0.52 0.63 0.55 0.58 0.38 0.11 0.10 0.11 0.12 0.07 0.03 0.00
0.01 0.04 0.10 0.29 0.44 0.44 0.33 0.15 0.13 0.04 0.06 0.08 0.11 0.20 0.41 0.40 0.34 0.17 0.31 0.55 0.78 0.60 0.57 0.72 0.68 0.35 0.08 0.03 0.04 0.03 0.03 0.02
0.04 0.08 0.13 0.11 0.05 0.02 0.06 0.08 0.14 0.05 0.04 0.05 0.09 0.27 0.42 0.34 0.38 0.23 0.21 0.27 0.56 0.76 0.63 0.62 0.63 0.42 0.17 0.05 0.02 0.00 0.01 0.03
0.03 0.00 0.00 0.01 0.02 0.03 0.06 0.12 0.15 0.05 0.02 0.03 0.04 0.13 0.23 0.24 0.21 0.18 0.14 0.18 0.27 0.49 0.74 0.58 0.56 0.52 0.43 0.16 0.06 0.04 0.07 0.11
0.00 0.01 0.00 0.00 0.04 0.07 0.08 0.12 0.16 0.08 0.02 0.07 0.14 0.16 0.19 0.23 0.19 0.14 0.10 0.11 0.16 0.22 0.38 0.51 0.51 0.43 0.43 0.33 0.23 0.21 0.28 0.36
0.02 0.02 0.01 0.01 0.05 0.08 0.10 0.13 0.19 0.10 0.07 0.08 0.14 0.18 0.16 0.15 0.11 0.10 0.07 0.09 0.13 0.15 0.22 0.27 0.41 0.51 0.56 0.60 0.65 0.52 0.41 0.48
0.03 0.02 0.01 0.02 0.04 0.08 0.08 0.07 0.10 0.10 0.13 0.07 0.06 0.13 0.16 0.16 0.13 0.17 0.13 0.08 0.08 0.18 0.27 0.25 0.24 0.38 0.76 0.81 0.82 0.63 0.54 0.55
0.01 0.01 0.02 0.03 0.07 0.18 0.12 0.11 0.11 0.07 0.12 0.17 0.21 0.26 0.31 0.37 0.36 0.31 0.20 0.21 0.24 0.39 0.53 0.58 0.49 0.42 0.48 0.68 0.78 0.68 0.70 0.61
0.00 0.01 0.02 0.03 0.03 0.16 0.20 0.13 0.12 0.08 0.11 0.16 0.25 0.38 0.40 0.31 0.35 0.58 0.42 0.37 0.28 0.39 0.50 0.41 0.41 0.37 0.43 0.60 0.66 0.51 0.44 0.47
0.00 0.00 0.00 0.01 0.02 0.11 0.16 0.10 0.11 0.10 0.08 0.10 0.15 0.27 0.41 0.48 0.80 1.10 1.22 0.99 0.77 0.49 0.53 0.53 0.39 0.26 0.25 0.29 0.32 0.32 0.32 0.32
0.00 0.00 0.01 0.00 0.01 0.05 0.13 0.24 0.23 0.09 0.11 0.21 0.33 0.40 0.58 0.92 0.88 1.17 0.94 0.90 0.96 0.82 0.62 0.63 0.56 0.50 0.46 0.40 0.34 0.29 0.25 0.20
0.00 0.00 0.01 0.00 0.00 0.01 0.08 0.31 0.54 0.75 0.72 1.04 0.92 1.05 1.21 1.11 1.38 1.94 1.33 0.98 0.72 0.50 0.36 0.28 0.30 0.34 0.37 0.30 0.24 0.19 0.19 0.19
0.03 0.00 0.00 0.00 0.01 0.06 0.24 0.77 1.19 1.00 1.08 1.01 1.09 1.49 0.97 0.59 0.44 0.37 0.33 0.25 0.19 0.12 0.10 0.13 0.15 0.15 0.20 0.27 0.30 0.28 0.27 0.25
0.11 0.05 0.09 0.13 0.17 0.25 0.32 0.55 0.78 0.79 0.81 0.80 0.68 0.63 0.61 0.38 0.30 0.25 0.26 0.24 0.22 0.15 0.13 0.14 0.14 0.14 0.14 0.12 0.12 0.09 0.09 0.13
0.13 0.16 0.20 0.26 0.33 0.37 0.38 0.44 0.48 0.49 0.53 0.41 0.34 0.27 0.20 0.16 0.16 0.12 0.13 0.07 0.06 0.08 0.12 0.19 0.18 0.14 0.14 0.12 0.08 0.07 0.07 0.08
0.01 0.03 0.07 0.11 0.14 0.20 0.21 0.19 0.24 0.24 0.30 0.32 0.31 0.25 0.25 0.18 0.16 0.17 0.08 0.07 0.10 0.14 0.16 0.15 0.13 0.11 0.17 0.11 0.06 0.04 0.04 0.06
0.02 0.00 0.02 0.12 0.08 0.12 0.13 0.16 0.15 0.19 0.25 0.27 0.23 0.29 0.26 0.25 0.23 0.20 0.28 0.36 0.31 0.26 0.26 0.18 0.11 0.08 0.14 0.08 0.08 0.04 0.06 0.07
0.26 0.08 0.10 0.06 0.02 0.07 0.17 0.21 0.17 0.15 0.19 0.23 0.21 0.18 0.20 0.23 0.26 0.31 0.41 0.43 0.39 0.28 0.23 0.25 0.20 0.19 0.20 0.12 0.13 0.06 0.07 0.07